Detroit Lakes, MN

4:42 PM CDT on September 21, 2017 (GMT -0500)
Detroit Lakes

Weather History for KDTL - November, 2012

Change the Weather History Date:

Thursday, November 15, 2012

  Actual Average Record
Temperature  
Mean Temperature 30 °F -  
Max Temperature 39 °F 37 °F 67 °F (1953)
Min Temperature 21 °F 20 °F -17 °F (1933)
Degree Days  
Heating Degree Days 35    
Moisture  
Dew Point 25 °F    
Average Humidity 82    
Maximum Humidity 100    
Minimum Humidity 55    
Precipitation  
Precipitation 0.00 in - - ()
Sea Level Pressure  
Sea Level Pressure 30.30 in    
Wind  
Wind Speed 9 mph (NW)    
Max Wind Speed 17 mph    
Max Gust Speed 22 mph    
Visibility 10 miles    
Events      
Averages and records for this station are not official NWS values.
T = Trace of Precipitation, MM = Missing Value Source: NWS Daily Summary

Daily Weather History Graph

Daily Weather History Graph

Search for Another Location

Airport or City:

Trip Planner

Search our weather history database for the weather conditions in past years. The results will help you decide how hot, cold, wet, or windy it might be!

Date:

Astronomy

Nov. 15, 2012 Rise Set
Actual Time 7:27 AM CST 4:48 PM CST
Civil Twilight 6:54 AM CST 5:21 PM CST
Nautical Twilight 6:17 AM CST 5:58 PM CST
Astronomical Twilight 5:41 AM CST 6:34 PM CST
Moon 9:28 AM CST (11/15) 6:37 PM CST (11/15)
Length of Visible Light 10h 27m
Length of Day
9h 21m
Waxing Crescent, 5% of the Moon is Illuminated
Nov 15
Waxing Crescent
Nov 20
First Quarter
Nov 28
Full
Dec 6
Last Quarter
Dec 13
New

Hourly Weather History & Observations

Time (CST) Temp. Windchill Dew Point Humidity Pressure Visibility Wind Dir Wind Speed Gust Speed Precip Events Conditions
12:13 AM 39.2 °F 33.0 °F 32.0 °F 75% 30.06 in 10.0 mi SW 9.2 mph - N/A   Scattered Clouds
12:32 AM 39.2 °F 32.5 °F 32.0 °F 75% 30.06 in 10.0 mi SW 10.4 mph - N/A   Scattered Clouds
12:53 AM 37.4 °F 30.8 °F 32.0 °F 81% 30.05 in 10.0 mi SW 9.2 mph - N/A   Clear
1:13 AM 37.4 °F 31.4 °F 32.0 °F 81% 30.05 in 10.0 mi SW 8.1 mph - N/A   Clear
1:32 AM 37.4 °F 31.4 °F 32.0 °F 81% 30.06 in 10.0 mi SW 8.1 mph - N/A   Clear
1:53 AM 35.6 °F 29.2 °F 32.0 °F 87% 30.07 in 10.0 mi WSW 8.1 mph - N/A   Clear
2:13 AM 35.6 °F 29.9 °F 32.0 °F 87% 30.07 in 10.0 mi WSW 6.9 mph - N/A   Clear
2:32 AM 35.6 °F 30.7 °F 32.0 °F 87% 30.07 in 10.0 mi WSW 5.8 mph - N/A   Clear
2:53 AM 35.6 °F 30.7 °F 32.0 °F 87% 30.08 in 10.0 mi West 5.8 mph - N/A   Clear
3:12 AM 35.6 °F 30.7 °F 32.0 °F 87% 30.08 in 10.0 mi West 5.8 mph - N/A   Clear
3:33 AM 35.6 °F 29.9 °F 32.0 °F 87% 30.09 in 10.0 mi West 6.9 mph - N/A   Clear
3:53 AM 33.8 °F 27.7 °F 32.0 °F 93% 30.08 in 10.0 mi West 6.9 mph - N/A   Clear
4:12 AM 33.8 °F 27.7 °F 32.0 °F 93% 30.09 in 10.0 mi West 6.9 mph - N/A   Clear
4:33 AM 33.8 °F 26.4 °F 32.0 °F 93% 30.10 in 10.0 mi WNW 9.2 mph - N/A   Clear
4:53 AM 32.0 °F 24.2 °F 32.0 °F 100% 30.11 in 10.0 mi WNW 9.2 mph - N/A   Clear
5:12 AM 32.0 °F 22.5 °F 32.0 °F 100% 30.12 in 10.0 mi NW 12.7 mph - N/A   Clear
5:33 AM 32.0 °F 24.2 °F 30.2 °F 93% 30.13 in 10.0 mi NW 9.2 mph - N/A   Clear
5:53 AM 32.0 °F 22.5 °F 30.2 °F 93% 30.14 in 10.0 mi NNW 12.7 mph 18.4 mph N/A   Clear
6:12 AM 32.0 °F 22.5 °F 30.2 °F 93% 30.16 in 10.0 mi NNW 12.7 mph 19.6 mph N/A   Clear
6:33 AM 30.2 °F 21.9 °F 28.4 °F 93% 30.17 in 10.0 mi NNW 9.2 mph - N/A   Clear
6:53 AM 30.2 °F 20.8 °F 28.4 °F 93% 30.19 in 10.0 mi NNW 11.5 mph - N/A   Clear
7:12 AM 28.4 °F 18.0 °F 28.4 °F 100% 30.20 in 10.0 mi NNW 12.7 mph - N/A   Clear
7:33 AM 28.4 °F 18.5 °F 26.6 °F 93% 30.22 in 10.0 mi NNW 11.5 mph - N/A   Clear
7:53 AM 28.4 °F 18.0 °F 26.6 °F 93% 30.23 in 10.0 mi NNW 12.7 mph - N/A   Clear
8:12 AM 28.4 °F 18.5 °F 26.6 °F 93% 30.24 in 10.0 mi NNW 11.5 mph - N/A   Clear
8:33 AM 28.4 °F 19.1 °F 26.6 °F 93% 30.26 in 10.0 mi NNW 10.4 mph - N/A   Clear
8:53 AM 28.4 °F 18.5 °F 26.6 °F 93% 30.26 in 10.0 mi NNW 11.5 mph - N/A   Clear
9:12 AM 30.2 °F 20.8 °F 26.6 °F 86% 30.28 in 10.0 mi NNW 11.5 mph 17.3 mph N/A   Clear
9:33 AM 30.2 °F 21.3 °F 26.6 °F 86% 30.29 in 10.0 mi North 10.4 mph 18.4 mph N/A   Clear
9:52 AM 30.2 °F 18.9 °F 26.6 °F 86% 30.30 in 10.0 mi NNW 16.1 mph 20.7 mph N/A   Clear
10:13 AM 30.2 °F 18.9 °F 26.6 °F 86% 30.31 in 10.0 mi NNW 16.1 mph - N/A   Clear
10:33 AM 30.2 °F 19.3 °F 24.8 °F 80% 30.33 in 10.0 mi NNW 15.0 mph 20.7 mph N/A   Clear
10:52 AM 32.0 °F 22.1 °F 23.0 °F 69% 30.34 in 10.0 mi North 13.8 mph - N/A   Clear
11:13 AM 32.0 °F 22.5 °F 23.0 °F 69% 30.34 in 10.0 mi NNW 12.7 mph - N/A   Clear
11:33 AM 32.0 °F 20.8 °F 23.0 °F 69% 30.35 in 10.0 mi NNW 17.3 mph - N/A   Clear
11:52 AM 32.0 °F 22.5 °F 21.2 °F 64% 30.36 in 10.0 mi North 12.7 mph 21.9 mph N/A   Clear
12:13 PM 32.0 °F 22.1 °F 23.0 °F 69% 30.37 in 10.0 mi North 13.8 mph 18.4 mph N/A   Clear
12:33 PM 32.0 °F 23.0 °F 21.2 °F 64% 30.37 in 10.0 mi NNW 11.5 mph 20.7 mph N/A   Clear
12:52 PM 32.0 °F 22.1 °F 19.4 °F 60% 30.37 in 10.0 mi NNW 13.8 mph - N/A   Clear
1:13 PM 32.0 °F 23.0 °F 19.4 °F 60% 30.38 in 10.0 mi NNW 11.5 mph 17.3 mph N/A   Clear
1:33 PM 32.0 °F 24.2 °F 19.4 °F 60% 30.37 in 10.0 mi North 9.2 mph - N/A   Clear
1:52 PM 32.0 °F 23.6 °F 19.4 °F 60% 30.38 in 10.0 mi North 10.4 mph - N/A   Clear
2:13 PM 32.0 °F 24.2 °F 19.4 °F 60% 30.38 in 10.0 mi North 9.2 mph 18.4 mph N/A   Clear
2:33 PM 32.0 °F 23.6 °F 19.4 °F 60% 30.39 in 10.0 mi NNW 10.4 mph - N/A   Clear
2:52 PM 32.0 °F 23.6 °F 19.4 °F 60% 30.39 in 10.0 mi North 10.4 mph - N/A   Clear
3:13 PM 32.0 °F 23.0 °F 17.6 °F 55% 30.39 in 10.0 mi North 11.5 mph 17.3 mph N/A   Clear
3:33 PM 32.0 °F 25.6 °F 17.6 °F 55% 30.41 in 10.0 mi North 6.9 mph - N/A   Clear
3:52 PM 32.0 °F 24.2 °F 19.4 °F 60% 30.41 in 10.0 mi North 9.2 mph - N/A   Clear
4:13 PM 32.0 °F 24.8 °F 19.4 °F 60% 30.41 in 10.0 mi NNW 8.1 mph - N/A   Clear
4:33 PM 30.2 °F 23.4 °F 21.2 °F 69% 30.42 in 10.0 mi NNW 6.9 mph - N/A   Clear
4:52 PM 28.4 °F 21.2 °F 21.2 °F 74% 30.42 in 10.0 mi NNW 6.9 mph - N/A   Clear
5:13 PM 28.4 °F 22.2 °F 21.2 °F 74% 30.43 in 10.0 mi NNW 5.8 mph - N/A   Clear
5:33 PM 26.6 °F 20.0 °F 21.2 °F 80% 30.43 in 10.0 mi NNW 5.8 mph - N/A   Clear
5:52 PM 26.6 °F 22.6 °F 21.2 °F 80% 30.44 in 10.0 mi NNW 3.5 mph - N/A   Clear
6:13 PM 26.6 °F 22.6 °F 21.2 °F 80% 30.43 in 10.0 mi NNW 3.5 mph - N/A   Clear
6:33 PM 26.6 °F 21.2 °F 21.2 °F 80% 30.43 in 10.0 mi NW 4.6 mph - N/A   Clear
6:52 PM 26.6 °F 22.6 °F 21.2 °F 80% 30.43 in 10.0 mi NW 3.5 mph - N/A   Clear
7:13 PM 26.6 °F 22.6 °F 21.2 °F 80% 30.43 in 10.0 mi NNW 3.5 mph - N/A   Clear
7:33 PM 24.8 °F 20.5 °F 21.2 °F 86% 30.44 in 10.0 mi NW 3.5 mph - N/A   Clear
7:52 PM 24.8 °F - 21.2 °F 86% 30.44 in 10.0 mi Calm Calm - N/A   Clear
8:13 PM 24.8 °F - 21.2 °F 86% 30.44 in 10.0 mi Calm Calm - N/A   Clear
8:33 PM 24.8 °F 20.5 °F 21.2 °F 86% 30.44 in 10.0 mi WNW 3.5 mph - N/A   Clear
8:52 PM 23.0 °F - 21.2 °F 93% 30.45 in 10.0 mi Calm Calm - N/A   Clear
9:13 PM 23.0 °F - 21.2 °F 93% 30.45 in 10.0 mi Calm Calm - N/A   Clear
9:33 PM 23.0 °F - 21.2 °F 93% 30.46 in 10.0 mi Calm Calm - N/A   Clear
9:52 PM 23.0 °F - 21.2 °F 93% 30.46 in 10.0 mi Calm Calm - N/A   Clear
10:13 PM 23.0 °F - 21.2 °F 93% 30.46 in 10.0 mi Calm Calm - N/A   Clear
10:32 PM 23.0 °F - 19.4 °F 86% 30.45 in 10.0 mi Calm Calm - N/A   Clear
10:53 PM 21.2 °F - 21.2 °F 100% 30.46 in 10.0 mi Calm Calm - N/A   Clear
11:13 PM 23.0 °F - 21.2 °F 93% 30.46 in 10.0 mi Calm Calm - N/A   Clear
11:32 PM 23.0 °F - 21.2 °F 93% 30.47 in 10.0 mi Calm Calm - N/A   Clear
11:53 PM 23.0 °F - 21.2 °F 93% 30.47 in 10.0 mi Calm Calm - N/A   Clear